Dewpoint
4 4 4 4 3 3 2 -0 -2 -3 -4 -4 -4 -4 -4 -4 -4 -4 -4 -4 -4 -4 -5 -7 -11 -17 -26 -35 -40 -41 -42 -41 -42 -42 -41 -43 -41 -42 -42 -42 -42 -42 -41 -41 -42 -41 -41 -42 -41 -43 -41 -42
4 4 4 4 3 3 1 -1 -3 -3 -4 -4 -4 -4 -4 -4 -5 -5 -4 -4 -4 -6 -10 -17 -26 -37 -41 -41 -42 -41 -42 -42 -41 -43 -43 -42 -42 -42 -42 -41 -41 -41 -41 -41 -41 -42 -41 -41 -41 -42 -41 -42
4 4 4 4 3 2 0 -3 -3 -4 -4 -4 -4 -4 -4 -5 -5 -4 -4 -5 -8 -15 -24 -35 -42 -41 -42 -42 -42 -42 -41 -42 -41 -42 -42 -41 -42 -41 -41 -41 -42 -41 -42 -42 -42 -42 -42 -40 -43 -41 -41 -43
4 4 4 3 3 1 -1 -3 -3 -3 -4 -4 -4 -4 -5 -5 -4 -4 -5 -9 -18 -32 -40 -42 -42 -41 -42 -41 -41 -43 -41 -42 -42 -41 -42 -41 -41 -41 -42 -42 -41 -42 -41 -42 -42 -42 -42 -42 -41 -41 -43 -42
3 3 3 3 2 0 -2 -3 -3 -4 -4 -4 -4 -5 -5 -4 -4 -4 -8 -19 -36 -42 -42 -42 -42 -42 -41 -43 -41 -42 -42 -42 -41 -41 -41 -40 -41 -41 -42 -42 -41 -42 -41 -42 -42 -41 -42 -42 -42 -42 -43 -42
3 3 3 2 1 -1 -2 -3 -3 -4 -4 -4 -5 -5 -5 -4 -3 -7 -16 -35 -43 -39 -42 -42 -41 -42 -41 -42 -42 -41 -42 -41 -41 -41 -42 -41 -42 -42 -40 -42 -42 -41 -41 -41 -41 -42 -42 -41 -43 -42 -42 -41
2 2 2 1 0 -2 -3 -3 -4 -4 -4 -4 -5 -5 -4 -4 -6 -14 -31 -43 -40 -42 -42 -41 -41 -41 -42 -42 -41 -42 -41 -41 -42 -42 -42 -41 -41 -43 -42 -41 -40 -41 -41 -41 -41 -41 -42 -42 -42 -41 -41 -41
1 2 2 0 -1 -2 -2 -3 -4 -4 -4 -5 -5 -5 -4 -4 -10 -24 -43 -40 -42 -42 -41 -41 -41 -40 -42 -42 -41 -41 -41 -41 -42 -41 -42 -42 -42 -42 -40 -42 -41 -41 -40 -41 -42 -42 -42 -41 -41 -41 -40 -40
1 2 1 -2 -2 -2 -3 -3 -4 -4 -4 -5 -5 -4 -4 -7 -18 -37 -43 -41 -42 -41 -41 -43 -40 -42 -42 -41 -42 -41 -43 -41 -41 -42 -42 -40 -42 -42 -41 -42 -40 -41 -42 -42 -42 -41 -42 -40 -40 -40 -38 -39
1 1 -1 -2 -2 -2 -3 -3 -4 -4 -5 -6 -5 -4 -6 -13 -31 -43 -40 -42 -42 -41 -42 -42 -41 -42 -41 -42 -42 -41 -42 -41 -41 -40 -42 -42 -40 -41 -40 -41 -41 -41 -42 -41 -42 -41 -40 -39 -39 -38 -37 -38
0 -0 -1 -1 -2 -3 -4 -3 -4 -4 -5 -5 -4 -5 -9 -22 -41 -40 -42 -42 -41 -42 -42 -42 -42 -42 -41 -42 -41 -41 -42 -40 -41 -40 -41 -42 -40 -41 -40 -41 -42 -42 -42 -41 -41 -40 -39 -39 -38 -37 -37 -37
0 -1 -0 -1 -2 -3 -3 -3 -4 -5 -5 -5 -4 -7 -15 -32 -43 -40 -44 -41 -41 -42 -41 -42 -41 -42 -42 -42 -41 -41 -41 -40 -42 -40 -40 -41 -40 -41 -41 -42 -41 -41 -41 -40 -40 -39 -39 -37 -37 -36 -35 -35
-0 -1 -1 -2 -3 -3 -3 -3 -4 -5 -5 -5 -5 -11 -23 -40 -42 -41 -42 -41 -43 -42 -42 -42 -41 -42 -41 -41 -41 -40 -40 -41 -40 -39 -40 -40 -41 -41 -41 -42 -40 -41 -39 -39 -39 -38 -37 -36 -36 -35 -34 -35
-1 -1 -1 -2 -3 -3 -3 -4 -5 -6 -5 -5 -8 -16 -32 -42 -41 -42 -41 -40 -42 -41 -42 -42 -41 -42 -41 -41 -40 -40 -39 -40 -40 -39 -41 -40 -41 -41 -41 -41 -39 -40 -38 -38 -37 -36 -37 -34 -35 -34 -34 -35
-1 -1 -1 -2 -3 -3 -3 -4 -5 -6 -5 -6 -11 -23 -39 -42 -41 -42 -41 -42 -42 -42 -42 -41 -42 -41 -40 -41 -39 -40 -40 -39 -40 -40 -40 -40 -41 -41 -41 -40 -39 -39 -37 -37 -36 -35 -35 -34 -35 -34 -33 -33
-0 -0 -1 -3 -3 -3 -4 -5 -6 -5 -5 -8 -16 -31 -42 -41 -41 -43 -40 -42 -42 -41 -42 -40 -41 -40 -40 -41 -39 -39 -39 -39 -41 -40 -41 -40 -41 -41 -40 -39 -38 -37 -37 -35 -34 -34 -34 -33 -33 -32 -32 -32
0 -0 -2 -3 -3 -3 -4 -5 -6 -5 -6 -10 -21 -37 -42 -41 -41 -41 -42 -42 -42 -41 -42 -41 -40 -40 -40 -39 -39 -40 -40 -41 -40 -40 -41 -40 -40 -40 -39 -39 -37 -36 -35 -34 -33 -33 -33 -33 -31 -31 -31 -30
0 -0 -2 -3 -3 -3 -4 -6 -5 -5 -7 -13 -26 -39 -41 -42 -41 -42 -42 -42 -42 -41 -40 -41 -40 -39 -40 -39 -39 -39 -39 -41 -40 -40 -41 -40 -40 -39 -38 -37 -36 -35 -33 -33 -33 -31 -31 -31 -30 -30 -30 -29
0 -1 -2 -3 -3 -4 -5 -6 -5 -5 -8 -16 -29 -41 -41 -41 -42 -41 -42 -41 -41 -42 -40 -40 -40 -39 -39 -39 -40 -40 -41 -41 -40 -40 -40 -40 -39 -38 -38 -37 -35 -34 -33 -33 -31 -30 -30 -30 -29 -28 -28 -29
-0 -1 -2 -2 -3 -4 -5 -6 -5 -6 -10 -19 -34 -41 -41 -41 -42 -42 -42 -42 -41 -40 -40 -39 -39 -39 -39 -39 -40 -40 -40 -40 -40 -39 -38 -38 -38 -38 -37 -35 -35 -33 -32 -33 -31 -30 -29 -28 -28 -28 -27 -27
-0 -1 -2 -2 -3 -5 -5 -6 -5 -7 -11 -22 -36 -41 -43 -40 -41 -42 -41 -41 -41 -40 -40 -39 -38 -38 -39 -40 -40 -40 -39 -39 -39 -38 -37 -38 -36 -35 -35 -33 -33 -33 -32 -33 -31 -29 -29 -28 -27 -26 -26 -25
-1 -2 -2 -2 -4 -5 -5 -6 -6 -7 -13 -26 -37 -41 -41 -41 -42 -41 -41 -41 -40 -40 -39 -39 -38 -38 -39 -39 -39 -39 -39 -38 -37 -37 -36 -36 -35 -34 -33 -33 -32 -32 -32 -31 -31 -30 -28 -28 -26 -25 -24 -24
-1 -2 -2 -2 -4 -5 -6 -6 -6 -8 -15 -28 -38 -41 -42 -41 -42 -41 -41 -41 -39 -40 -39 -38 -39 -39 -39 -39 -39 -38 -37 -37 -36 -35 -35 -34 -34 -33 -32 -32 -31 -31 -31 -30 -29 -29 -27 -26 -25 -25 -24 -23
-1 -2 -2 -3 -4 -5 -6 -6 -6 -9 -17 -31 -39 -41 -42 -40 -42 -41 -40 -40 -39 -39 -38 -38 -39 -39 -39 -38 -37 -37 -35 -36 -35 -34 -34 -34 -33 -32 -32 -31 -30 -30 -29 -29 -28 -27 -26 -24 -23 -23 -23 -23
-2 -2 -2 -3 -5 -5 -6 -6 -6 -10 -18 -33 -40 -40 -42 -41 -42 -41 -40 -40 -39 -39 -38 -38 -39 -38 -38 -37 -36 -35 -35 -35 -34 -34 -33 -32 -32 -31 -31 -30 -29 -29 -27 -27 -27 -25 -24 -23 -22 -21 -21 -23
-2 -2 -3 -4 -5 -5 -6 -6 -7 -11 -21 -34 -41 -42 -41 -41 -41 -40 -40 -39 -38 -38 -38 -38 -38 -38 -38 -37 -35 -35 -34 -33 -33 -33 -32 -31 -30 -28 -28 -28 -27 -27 -26 -25 -24 -24 -23 -22 -22 -20 -20 -22
-1 -2 -3 -4 -5 -6 -6 -6 -7 -12 -23 -35 -40 -42 -41 -41 -41 -41 -40 -38 -38 -38 -38 -39 -37 -37 -37 -36 -35 -34 -33 -33 -32 -31 -31 -30 -28 -27 -26 -26 -26 -25 -25 -24 -23 -22 -21 -20 -21 -20 -20 -21
-1 -2 -3 -4 -5 -6 -6 -7 -9 -15 -25 -37 -42 -41 -41 -41 -42 -40 -39 -39 -38 -38 -38 -38 -37 -36 -36 -35 -35 -33 -32 -32 -32 -30 -29 -28 -27 -27 -26 -25 -25 -24 -24 -24 -23 -22 -20 -19 -21 -21 -20 -21
-2 -2 -3 -4 -5 -6 -6 -8 -11 -15 -22 -33 -42 -41 -40 -42 -42 -41 -40 -39 -38 -38 -37 -36 -36 -35 -35 -35 -34 -33 -32 -30 -30 -29 -27 -27 -26 -26 -26 -25 -25 -24 -23 -23 -23 -23 -21 -20 -21 -21 -21 -21
-2 -2 -3 -4 -5 -6 -6 -7 -9 -12 -19 -31 -41 -41 -41 -42 -42 -41 -39 -38 -38 -37 -36 -35 -36 -35 -33 -34 -33 -32 -32 -30 -28 -28 -27 -26 -26 -25 -25 -25 -24 -24 -24 -23 -22 -22 -22 -22 -21 -21 -21 -21
-2 -2 -3 -4 -5 -6 -6 -7 -8 -12 -20 -32 -41 -40 -41 -42 -42 -41 -39 -38 -38 -37 -36 -35 -35 -34 -33 -33 -32 -31 -30 -29 -28 -27 -26 -26 -26 -25 -24 -24 -24 -24 -23 -23 -22 -22 -22 -21 -21 -21 -21 -21
Wind_Speed
4 3 3 1 0 2 3 4 5 5 6 7 8 10 11 13 15 16 17 18 18 19 18 17 16 15 14 13 13 13 13 12 12 12 12 12 12 13 14 15 15 16 16 17 17 17 17 17 18 18 19 20
4 4 3 1 1 2 3 4 4 5 6 7 9 11 12 14 15 16 17 18 19 18 17 15 13 12 12 11 12 12 12 11 12 12 12 12 13 14 15 16 17 18 19 19 19 19 18 19 20 20 20 21
5 4 3 2 1 2 3 3 4 4 6 7 10 11 13 15 15 16 17 18 18 17 15 13 11 11 11 11 11 11 11 12 13 13 13 14 14 15 16 18 19 19 20 20 20 20 20 20 20 21 21 22
5 5 4 2 2 2 3 3 3 4 6 8 10 12 13 14 15 17 18 18 16 14 12 11 10 10 10 10 10 11 12 12 13 13 14 15 15 16 17 19 19 19 20 20 20 20 21 20 21 22 23 24
6 5 4 3 3 3 2 2 2 4 7 8 10 12 13 14 16 18 18 16 14 12 10 10 10 10 10 10 11 11 12 13 14 14 15 16 16 16 17 18 19 20 20 21 21 21 21 22 23 24 24 24
6 6 5 4 4 3 2 1 2 4 7 9 11 12 12 14 16 18 16 13 11 10 9 9 9 10 10 10 11 11 12 13 15 15 16 16 16 16 17 19 20 21 21 21 22 22 23 23 24 24 23 23
6 6 6 5 4 4 2 1 3 5 7 9 11 11 13 15 17 16 14 11 10 9 8 9 9 10 10 10 11 11 12 14 15 15 16 16 16 17 19 20 21 22 22 22 22 22 22 23 23 23 22 23
7 7 6 6 5 4 2 1 3 5 8 9 11 11 13 16 16 14 11 9 9 8 8 9 9 10 10 10 11 11 12 14 16 16 16 17 18 19 20 21 22 22 22 21 21 21 21 22 22 22 22 22
7 8 7 7 6 4 2 1 3 6 8 10 11 11 14 15 14 11 8 8 7 7 8 9 9 9 10 10 11 11 12 14 16 17 17 18 19 20 21 21 21 21 21 20 20 21 21 21 21 21 22 22
8 8 8 7 6 3 2 1 4 7 9 9 10 11 13 13 11 8 7 7 7 8 8 8 9 10 10 10 11 11 13 15 17 18 18 18 19 21 21 20 20 20 20 20 20 20 20 20 21 22 22 22
8 9 8 7 6 4 2 2 5 7 8 9 10 11 12 11 8 6 6 6 7 8 8 8 9 10 10 11 12 12 14 16 17 18 18 19 20 20 20 20 20 20 20 19 19 19 19 20 21 22 22 22
9 10 9 8 6 4 3 3 6 7 8 8 9 10 11 8 6 5 5 6 7 7 8 8 9 10 11 11 12 13 14 16 17 17 18 19 20 19 19 20 20 20 19 18 18 19 19 20 21 22 22 22
11 11 10 9 7 5 3 4 6 7 7 8 9 10 9 6 5 5 5 6 7 8 8 8 9 10 11 12 13 14 14 16 17 17 17 19 19 19 19 20 20 19 18 18 18 19 20 20 21 21 21 20
12 12 11 9 7 5 4 5 6 7 7 7 8 8 7 5 4 5 6 6 7 8 8 9 10 11 12 13 13 14 14 15 16 17 18 18 19 19 19 19 19 19 18 18 18 19 20 20 20 20 19 19
13 12 11 9 7 6 5 5 6 6 6 6 7 6 5 4 4 5 6 6 7 8 8 10 11 11 12 13 13 13 14 15 16 18 19 18 19 19 19 18 18 18 18 18 18 18 19 19 18 18 18 18
13 13 11 10 8 7 6 5 6 6 5 6 6 5 4 3 4 5 6 6 7 8 9 10 11 12 12 13 13 13 15 16 16 18 19 19 18 18 17 17 17 17 17 18 18 18 17 17 17 17 17 17
14 13 12 10 9 7 6 5 6 5 5 5 4 3 3 3 4 5 6 6 7 8 10 11 11 11 12 13 13 13 15 17 16 16 18 19 17 17 16 16 17 17 17 17 17 17 16 16 16 17 16 16
15 14 12 11 9 8 6 5 5 5 4 4 3 2 2 4 5 6 6 7 8 9 10 11 11 11 12 13 13 13 14 17 17 16 16 18 17 16 15 15 16 16 16 16 16 16 15 15 16 16 15 14
16 15 13 11 10 8 6 5 5 4 3 3 1 2 3 5 6 6 7 8 9 10 10 11 11 11 12 13 14 13 14 16 17 16 15 16 16 15 14 14 14 15 15 15 15 15 15 16 16 15 14 14
17 15 13 12 10 8 6 5 5 4 3 2 0 2 4 6 6 7 8 9 10 10 10 11 11 11 12 13 14 14 14 15 16 16 16 15 15 14 13 13 13 13 13 14 15 14 14 15 15 15 15 15
18 16 14 13 11 9 6 5 6 4 3 2 2 4 6 7 7 8 9 10 11 10 10 11 11 11 12 13 14 14 14 15 15 15 16 15 14 13 13 12 11 11 10 11 13 14 14 14 14 15 16 17
19 17 15 14 12 9 7 6 6 5 4 3 3 5 7 8 8 9 10 11 11 11 11 11 11 11 12 13 14 14 14 14 15 15 15 15 14 13 12 11 10 10 9 10 11 12 13 14 15 16 16 17
20 18 16 15 13 10 8 7 7 6 5 4 5 6 8 9 9 10 11 11 11 11 11 12 12 12 13 14 13 13 13 13 15 16 15 13 13 13 12 10 10 9 8 8 9 10 12 14 15 16 15 16
21 20 18 16 13 10 9 8 8 7 6 5 6 8 9 10 10 11 12 12 12 12 12 12 12 13 13 14 13 14 13 13 14 15 16 14 12 12 11 10 9 8 7 6 6 9 12 13 13 14 15 15
23 21 19 17 14 11 10 10 9 8 7 6 7 9 11 11 11 12 13 13 13 13 13 13 13 13 14 14 14 14 14 14 14 14 15 15 13 11 10 9 8 7 6 6 6 8 11 13 11 11 14 15
24 22 20 17 14 12 11 11 10 9 8 8 9 11 12 12 12 13 14 13 13 13 14 14 13 12 13 14 15 14 14 14 14 13 13 13 14 12 10 10 10 9 7 7 8 9 10 12 12 9 12 16
25 24 22 18 15 14 13 12 11 10 9 9 10 12 13 13 14 15 15 15 14 14 14 15 14 13 12 14 15 15 14 14 14 13 12 12 12 12 10 10 10 11 10 9 7 6 6 7 9 5 9 14
28 27 24 20 17 15 13 12 11 11 11 11 12 14 15 14 15 16 17 16 16 15 15 14 15 14 13 13 15 16 15 14 13 13 12 11 11 10 10 9 10 11 12 12 9 6 4 3 5 5 9 12
32 28 24 21 19 17 15 14 14 14 13 13 15 16 17 16 17 18 18 18 18 17 16 15 15 15 14 14 15 16 15 14 13 12 11 11 10 9 10 9 10 11 11 13 13 11 7 4 5 8 12 13
32 27 24 21 19 18 17 17 16 15 14 14 16 17 18 18 19 19 19 19 19 19 18 17 16 16 16 15 15 15 15 14 13 12 11 10 10 9 10 10 10 10 11 12 13 14 13 10 9 10 14 15
30 27 25 21 19 18 18 17 16 16 15 16 17 18 19 19 20 20 19 19 20 19 19 18 17 17 17 16 16 15 13 13 12 12 11 9 9 8 9 9 9 10 12 13 13 14 15 13 12 13 15 17
Wind_Direction
231 237 229 217 110 51 47 47 49 41 29 17 9 3 358 355 351 349 347 344 342 341 340 340 340 342 348 353 360 7 12 18 26 36 43 45 48 51 55 59 62 66 66 67 68 66 67 67 65 60 57 55
235 235 230 212 105 58 51 53 49 34 20 10 3 359 355 351 348 347 345 343 342 342 343 346 350 355 2 8 13 19 27 36 46 52 56 58 61 63 66 68 69 70 70 70 70 69 67 65 63 60 56 54
233 231 222 186 127 73 66 64 45 25 11 4 359 355 350 347 346 345 344 343 344 346 351 357 6 12 17 21 27 35 45 53 60 63 65 66 68 70 72 73 72 72 73 72 71 70 66 63 62 59 56 54
226 224 204 172 143 109 88 72 36 15 5 1 356 350 347 345 345 345 344 346 350 356 5 12 19 25 32 39 45 51 58 63 68 70 70 72 72 74 76 77 77 76 76 74 70 68 65 62 59 57 55 53
218 208 187 173 156 131 113 84 25 7 2 357 351 347 345 344 343 344 346 351 360 10 17 24 32 40 48 54 58 62 67 71 73 75 74 75 76 78 80 81 80 77 74 72 69 65 63 60 57 55 54 53
206 193 180 174 165 151 141 98 13 4 358 351 347 344 342 342 343 345 350 359 11 22 28 39 49 56 61 64 67 71 76 78 77 78 80 82 83 83 82 80 77 73 70 68 66 64 61 59 57 56 54 53
193 184 180 178 172 164 155 78 8 0 351 346 343 340 341 342 344 349 357 10 22 32 43 57 63 66 70 73 75 78 80 83 82 82 85 87 86 82 77 74 72 71 68 67 66 64 63 61 59 56 55 54
188 183 184 180 173 167 167 24 2 350 343 340 339 339 342 343 347 355 4 19 32 46 61 69 72 74 76 79 80 82 85 87 89 86 85 84 81 77 73 71 70 71 70 69 67 66 64 61 60 56 54 53
190 187 185 176 173 174 181 358 348 339 336 335 337 338 341 344 351 1 15 32 49 64 74 77 78 81 80 82 84 89 91 89 88 85 82 80 79 76 74 73 72 72 72 71 69 66 64 62 60 57 54 53
192 190 184 175 177 181 196 329 333 329 329 330 335 336 343 350 356 9 29 49 69 77 79 82 84 86 85 89 91 93 91 85 85 84 83 82 80 79 77 76 75 75 73 70 68 66 65 63 60 57 53 51
194 191 186 180 186 191 220 308 317 319 323 327 333 338 348 355 3 22 45 67 82 84 85 87 88 91 93 95 93 90 87 85 85 86 86 84 82 82 81 80 78 77 74 71 69 67 66 63 59 55 51 48
199 196 190 187 193 200 233 294 306 314 321 324 334 344 355 1 15 41 68 87 93 92 94 93 95 98 98 96 91 88 86 86 86 86 87 86 86 86 86 86 82 79 76 73 70 67 64 61 57 53 49 47
204 197 191 191 195 207 242 285 300 311 318 325 340 352 1 9 33 67 90 100 101 99 102 101 102 103 101 97 91 88 88 88 88 88 89 90 91 90 88 87 84 81 76 73 69 65 62 59 56 53 50 48
203 194 191 193 199 215 250 279 296 309 316 329 347 358 6 24 56 87 100 104 104 105 108 107 107 105 102 98 92 90 90 92 93 93 92 93 94 92 89 86 84 82 77 73 68 65 62 59 56 54 52 50
200 193 193 195 203 222 251 274 295 308 315 336 352 2 16 46 83 103 107 107 108 111 112 111 111 106 103 98 95 94 94 95 96 97 95 93 93 92 91 87 85 81 78 74 69 66 63 61 59 56 53 50
199 195 195 197 208 227 249 273 296 303 316 343 356 9 33 74 107 116 114 115 116 117 116 113 111 107 104 100 97 96 97 96 95 98 97 95 94 93 92 89 86 81 79 77 72 68 65 63 61 57 53 49
200 195 197 201 212 230 248 273 294 299 320 345 357 22 62 102 121 124 121 124 123 123 119 115 111 108 106 101 97 97 98 97 95 97 99 100 99 96 93 89 86 83 80 79 76 72 66 63 60 56 51 48
200 198 200 205 217 231 248 273 289 293 318 342 359 47 99 128 133 131 129 131 129 127 122 116 113 109 106 101 99 98 98 99 99 99 100 102 102 97 93 89 87 86 84 81 79 75 68 63 59 55 50 46
201 201 202 209 221 231 246 268 280 286 311 331 358 98 134 146 144 140 138 137 133 130 124 119 115 111 108 104 102 101 101 101 102 101 99 99 100 97 92 91 91 89 87 85 81 77 71 66 60 55 50 45
202 202 204 212 221 228 243 262 270 275 293 297 185 145 155 157 152 148 146 141 135 133 127 121 117 114 112 109 107 105 103 103 104 105 102 98 97 97 93 91 93 91 88 87 84 79 74 68 61 54 47 42
202 202 206 214 220 226 239 253 259 261 269 249 181 164 166 164 159 155 150 144 138 135 131 125 121 121 118 114 111 108 107 106 105 106 106 103 99 96 94 91 91 93 89 85 85 81 73 66 59 50 41 37
203 204 208 215 219 224 235 245 248 248 246 222 184 174 171 169 165 159 152 147 143 140 135 130 127 128 123 117 114 112 111 109 108 107 106 106 105 101 97 94 93 92 89 84 82 80 72 61 52 42 34 30
205 206 210 215 217 220 230 238 240 239 232 210 186 178 175 173 169 163 156 151 148 146 141 136 134 133 127 122 118 114 112 110 109 109 107 105 105 105 103 99 96 90 84 79 73 70 66 54 43 35 26 20
207 208 210 214 216 219 227 233 234 232 223 204 189 182 179 177 174 167 160 155 154 152 146 143 141 138 133 127 122 118 114 110 109 108 108 107 104 105 105 102 96 87 75 68 68 66 62 52 36 25 17 12
209 210 213 214 215 219 226 230 229 226 218 204 191 185 182 181 178 170 164 161 160 157 152 148 147 145 139 132 127 122 117 112 109 106 106 106 106 103 100 98 90 82 71 54 54 54 51 44 28 13 6 4
212 212 215 216 217 220 224 227 225 222 214 203 194 188 185 183 179 172 167 166 165 163 157 152 152 151 145 137 132 127 120 114 110 105 102 102 105 101 93 89 78 70 63 49 45 41 44 35 16 5 357 355
213 213 213 213 215 218 223 225 222 217 211 204 197 191 189 186 181 175 171 169 169 168 162 157 156 154 149 140 134 129 122 118 113 107 102 98 100 99 91 84 74 68 59 53 50 38 55 42 10 1 349 346
213 213 212 210 213 218 223 222 217 212 207 202 197 194 192 189 183 178 174 172 170 170 167 161 158 154 151 144 135 130 125 121 118 112 108 102 98 95 88 79 71 68 59 55 56 40 57 54 16 11 351 351
215 214 212 212 213 215 215 214 213 211 207 202 198 196 194 190 186 181 178 176 172 170 169 164 160 155 151 146 137 133 129 125 121 115 111 103 95 88 79 71 60 59 57 52 53 51 60 64 27 12 1 7
217 214 214 216 218 219 219 218 218 214 210 206 202 199 196 191 187 184 181 178 174 172 170 167 163 158 152 147 140 136 134 131 125 116 109 99 92 82 70 65 55 52 52 47 46 46 49 50 33 16 7 11
215 213 213 215 218 222 224 224 220 213 209 207 204 200 198 194 188 185 183 180 177 174 171 168 165 160 155 149 143 141 138 134 128 119 111 99 88 78 67 61 51 47 46 42 41 37 36 36 25 18 14 11
Height
1545 1546 1546 1546 1546 1546 1546 1546 1546 1546 1546 1545 1545 1545 1544 1543 1542 1541 1541 1539 1538 1537 1536 1534 1533 1532 1531 1530 1529 1528 1528 1527 1527 1526 1525 1525 1524 1524 1523 1522 1522 1521 1521 1520 1519 1518 1517 1517 1516 1515 1515 1513
1545 1545 1545 1545 1545 1546 1546 1546 1546 1546 1546 1545 1545 1544 1543 1543 1542 1541 1540 1539 1537 1536 1535 1533 1532 1531 1530 1530 1529 1529 1528 1528 1527 1527 1526 1526 1525 1524 1524 1523 1523 1522 1521 1520 1519 1519 1518 1517 1516 1516 1515 1514
1544 1544 1544 1545 1545 1545 1546 1546 1546 1546 1545 1545 1544 1544 1543 1542 1541 1540 1539 1538 1536 1535 1534 1532 1532 1531 1530 1530 1529 1529 1529 1528 1528 1527 1527 1526 1526 1525 1524 1524 1523 1522 1521 1521 1520 1519 1519 1518 1517 1516 1515 1514
1543 1544 1544 1544 1545 1545 1545 1545 1545 1545 1545 1544 1544 1543 1542 1541 1540 1540 1538 1537 1536 1534 1533 1532 1531 1531 1530 1530 1530 1529 1529 1529 1528 1528 1527 1527 1526 1526 1525 1524 1523 1523 1522 1521 1521 1520 1519 1519 1518 1516 1515 1515
1543 1543 1543 1544 1544 1545 1545 1545 1545 1545 1544 1544 1543 1542 1542 1541 1540 1539 1537 1536 1535 1534 1533 1532 1532 1531 1531 1530 1530 1530 1530 1529 1529 1528 1528 1527 1527 1526 1526 1525 1524 1523 1522 1521 1521 1520 1520 1519 1518 1516 1516 1515
1542 1542 1543 1543 1544 1544 1545 1545 1545 1544 1544 1543 1543 1542 1541 1540 1539 1538 1537 1535 1534 1533 1533 1532 1532 1531 1531 1531 1531 1530 1530 1530 1529 1529 1528 1528 1528 1527 1526 1525 1524 1523 1522 1522 1521 1521 1520 1519 1518 1518 1517 1517
1541 1542 1542 1543 1544 1544 1544 1544 1544 1544 1543 1543 1542 1541 1540 1540 1538 1537 1536 1535 1534 1533 1533 1532 1532 1532 1532 1531 1531 1531 1530 1530 1530 1529 1529 1529 1528 1527 1526 1524 1524 1523 1523 1522 1522 1521 1521 1520 1520 1519 1519 1518
1540 1541 1542 1543 1543 1543 1543 1543 1543 1543 1543 1542 1542 1541 1540 1539 1537 1536 1535 1535 1534 1533 1533 1533 1533 1533 1532 1532 1532 1531 1531 1530 1530 1530 1529 1528 1528 1526 1525 1525 1524 1524 1523 1523 1523 1523 1522 1521 1521 1521 1520 1519
1540 1541 1541 1542 1542 1543 1543 1543 1543 1542 1542 1541 1541 1540 1539 1538 1537 1536 1535 1535 1534 1534 1533 1533 1533 1533 1533 1532 1532 1532 1532 1531 1530 1530 1529 1528 1527 1526 1526 1525 1525 1524 1524 1524 1524 1523 1523 1523 1522 1522 1521 1520
1539 1540 1541 1541 1542 1542 1542 1542 1542 1542 1542 1541 1540 1539 1538 1537 1536 1535 1535 1534 1534 1534 1533 1533 1533 1533 1533 1533 1533 1533 1532 1531 1530 1529 1529 1528 1527 1527 1526 1526 1526 1525 1525 1525 1525 1524 1524 1524 1523 1522 1521 1521
1539 1539 1540 1541 1541 1541 1541 1541 1541 1541 1541 1540 1540 1539 1538 1537 1536 1535 1535 1534 1534 1534 1534 1533 1533 1533 1533 1533 1533 1532 1531 1531 1530 1529 1529 1528 1528 1527 1527 1527 1527 1526 1526 1526 1526 1525 1525 1524 1523 1523 1522 1521
1538 1539 1539 1540 1540 1541 1541 1541 1541 1541 1540 1540 1539 1538 1537 1536 1535 1535 1534 1534 1534 1534 1534 1534 1533 1533 1533 1533 1533 1532 1531 1531 1530 1530 1529 1529 1528 1528 1528 1528 1528 1527 1527 1527 1527 1526 1525 1524 1523 1523 1522 1521
1537 1538 1539 1539 1540 1540 1540 1540 1540 1540 1539 1539 1538 1537 1536 1536 1535 1535 1534 1534 1534 1534 1534 1534 1534 1533 1533 1533 1532 1532 1532 1531 1531 1530 1530 1529 1529 1529 1529 1528 1528 1528 1528 1527 1527 1526 1525 1524 1523 1523 1523 1522
1536 1537 1538 1539 1539 1539 1540 1540 1540 1539 1538 1538 1537 1536 1536 1535 1535 1534 1534 1534 1534 1534 1534 1534 1534 1533 1533 1533 1533 1532 1532 1532 1531 1531 1530 1530 1529 1529 1529 1529 1529 1528 1528 1527 1527 1526 1525 1524 1524 1524 1524 1523
1536 1536 1537 1538 1538 1539 1539 1539 1539 1538 1538 1537 1536 1535 1535 1535 1535 1534 1534 1534 1534 1534 1534 1534 1534 1533 1533 1533 1533 1533 1532 1532 1531 1531 1530 1530 1530 1529 1529 1530 1529 1529 1528 1528 1527 1526 1526 1525 1525 1525 1525 1524
1535 1535 1536 1537 1537 1538 1538 1538 1538 1537 1537 1536 1535 1535 1534 1534 1534 1534 1534 1534 1534 1534 1534 1534 1534 1533 1533 1533 1533 1533 1532 1532 1532 1531 1530 1530 1530 1530 1530 1530 1530 1529 1529 1528 1527 1527 1527 1527 1526 1526 1526 1525
1534 1534 1535 1536 1537 1537 1537 1537 1537 1536 1536 1535 1535 1534 1534 1534 1534 1534 1534 1534 1534 1533 1533 1534 1534 1533 1533 1533 1533 1533 1532 1532 1532 1531 1530 1530 1531 1531 1531 1530 1530 1530 1529 1529 1528 1528 1528 1528 1527 1527 1526 1526
1532 1533 1534 1535 1536 1536 1536 1536 1536 1535 1535 1534 1534 1533 1533 1534 1534 1534 1534 1534 1534 1533 1533 1533 1534 1534 1533 1533 1533 1533 1533 1532 1531 1532 1531 1531 1531 1531 1531 1531 1530 1530 1529 1529 1529 1529 1529 1528 1527 1527 1527 1527
1531 1532 1533 1534 1535 1535 1535 1535 1535 1535 1534 1534 1533 1533 1533 1533 1534 1534 1534 1534 1533 1533 1533 1533 1533 1534 1533 1533 1533 1533 1533 1532 1532 1532 1532 1532 1531 1531 1531 1531 1531 1530 1530 1530 1529 1529 1529 1529 1528 1528 1528 1527
1530 1531 1532 1533 1534 1534 1534 1534 1534 1534 1533 1533 1533 1532 1533 1533 1533 1533 1534 1533 1533 1533 1533 1533 1533 1533 1533 1533 1533 1533 1533 1533 1532 1532 1532 1532 1532 1532 1532 1532 1531 1531 1531 1530 1530 1529 1529 1529 1528 1528 1528 1527
1528 1530 1531 1532 1532 1532 1532 1533 1533 1533 1533 1532 1532 1532 1532 1532 1532 1533 1533 1533 1533 1533 1533 1533 1533 1533 1533 1533 1533 1533 1533 1533 1533 1533 1533 1533 1533 1533 1532 1532 1532 1532 1531 1531 1530 1529 1529 1529 1528 1528 1527 1526
1527 1528 1529 1530 1531 1531 1531 1532 1532 1532 1532 1532 1531 1531 1531 1532 1532 1532 1532 1533 1533 1533 1533 1533 1533 1534 1534 1534 1534 1534 1534 1533 1533 1533 1533 1533 1533 1533 1533 1533 1533 1532 1532 1531 1530 1529 1529 1529 1528 1527 1527 1526
1525 1526 1528 1528 1529 1529 1530 1530 1531 1531 1531 1531 1530 1530 1531 1531 1531 1532 1532 1532 1532 1532 1533 1533 1533 1534 1534 1534 1534 1534 1534 1534 1533 1533 1533 1533 1533 1533 1533 1533 1533 1533 1532 1532 1531 1530 1528 1528 1527 1527 1526 1525
1523 1524 1525 1526 1527 1528 1528 1529 1530 1530 1530 1530 1529 1530 1530 1530 1531 1531 1531 1532 1532 1532 1532 1533 1533 1533 1533 1534 1534 1534 1534 1534 1534 1533 1533 1533 1534 1534 1534 1534 1533 1533 1532 1532 1531 1530 1528 1527 1527 1526 1526 1525
1521 1522 1523 1524 1525 1526 1527 1528 1528 1528 1528 1528 1528 1529 1529 1530 1530 1530 1531 1531 1531 1532 1532 1532 1533 1533 1533 1533 1534 1534 1534 1534 1534 1534 1533 1533 1534 1534 1534 1534 1533 1533 1533 1532 1531 1529 1528 1526 1526 1526 1525 1524
1519 1520 1521 1522 1523 1524 1526 1526 1527 1527 1527 1527 1527 1528 1529 1529 1530 1530 1530 1531 1531 1531 1531 1532 1532 1533 1532 1533 1533 1534 1534 1534 1534 1534 1534 1534 1534 1534 1534 1534 1534 1533 1532 1531 1530 1528 1527 1526 1526 1525 1525 1523
1517 1518 1519 1520 1521 1523 1524 1525 1525 1526 1526 1526 1526 1527 1528 1528 1529 1529 1530 1530 1531 1531 1531 1531 1532 1532 1532 1532 1533 1533 1533 1533 1534 1534 1534 1534 1534 1535 1535 1534 1534 1533 1532 1531 1530 1529 1528 1527 1526 1525 1524 1523
1513 1515 1516 1518 1519 1520 1522 1523 1524 1524 1524 1525 1525 1526 1527 1527 1528 1528 1529 1530 1530 1531 1531 1531 1532 1532 1532 1532 1532 1533 1533 1533 1534 1534 1534 1535 1535 1535 1535 1535 1534 1533 1532 1531 1530 1529 1528 1527 1526 1525 1524 1523
1510 1512 1514 1515 1516 1518 1519 1520 1521 1522 1522 1523 1524 1525 1525 1526 1527 1527 1528 1529 1529 1530 1531 1531 1531 1532 1532 1532 1532 1533 1533 1533 1534 1534 1534 1535 1535 1535 1535 1534 1534 1533 1532 1531 1530 1529 1528 1527 1526 1525 1524 1522
1507 1510 1511 1513 1514 1515 1516 1517 1518 1519 1520 1521 1522 1523 1524 1525 1525 1526 1527 1528 1529 1529 1530 1530 1531 1532 1532 1532 1532 1533 1533 1533 1533 1534 1534 1534 1535 1535 1534 1534 1534 1533 1532 1531 1530 1529 1528 1527 1526 1525 1524 1522
1506 1507 1509 1510 1512 1513 1514 1515 1516 1517 1519 1519 1521 1522 1523 1523 1524 1525 1527 1527 1528 1529 1530 1530 1531 1531 1531 1531 1532 1533 1533 1533 1533 1533 1534 1534 1535 1535 1534 1534 1533 1532 1531 1530 1529 1528 1527 1527 1526 1525 1523 1522